SHIYAN 24C 03 (58652 NORAD) Tracking and Keplerian Element Data

This shows tracking and keplerian element data for the satellite.

Feedback or suggestion? Click here.




ElementValue
Catalog58652
NameSHIYAN 24C 03
Epoch Orbit273
Epoch Day13.18327318
Epoch Year2024
RAAN21.3562
Inclination97.3334
Eccentricity0.0010993
Argument of Perigee224.6376
Mean Anonmoly135.3968
Mean Motion15.06526843
Decay Rate3.055E-05
L11 58652U 23206C 24013.18327318 .00003055 00000+0 21038-3 0 9991
L22 58652 97.3334 21.3562 0010993 224.6376 135.3968 15.06526843 2735



Live tracking and technical data element details for SHIYAN 24C 03 (NORAD 58652). SHIYAN 24C 03 can be tracked NOW for your location showing map with azimuth and elevation plus other details from your city location.







IsCatalogInMostPopularTable: catalog: 58652, numindb: 23
Update: records affected: 1



GetName: 58652 SHIYAN 24C 03

Hit Count: updated at: Wed, 17 Apr 2024 01:47:07 GMT